Regional Weather Roundup
Issued by NWS

Home | Current Version | Previous Version | Text Only | Print | Product List | Glossary On
Versions: 1 2 3 4 5 6 7 8 9 10 11 12 13 14 15 16 17 18 19 20 21 22 23 24 25 26 27 28 29 30 31 32 33 34 35 36 37 38 39 40 41 42 43 44 45 46 47 48 49 50
000
ASCA42 TJSJ 251011
RWRPR
PUERTO RICO/U.S. VIRGIN ISLANDS HOURLY WEATHER ROUNDUP
NATIONAL WEATHER SERVICE SAN JUAN PR
600 AM AST SUN JAN 25 2015

PRZ001-004-251100-
PUERTO RICO

CITY           SKY/WX    TMP DP  RH WIND       PRES   REMARKS
SAN JUAN LMM   PTCLDY    73  72  94 CALM      30.00R
CEIBA          MOCLDY    72  72 100 CALM      30.03R
$$

PRZ006-007-251100-
U.S. VIRGIN ISLANDS

CITY           SKY/WX    TMP DP  RH WIND       PRES   REMARKS
CHARLOTTE AMA  CLEAR     72  70  94 E6        30.00
$$

HOURLY WEATHER ROUNDUP FOR THE NEWS MEDIA

CITY           SKY/WX    TMP DP  RH WIND       PRES   REMARKS
MIAMI          CLEAR     54  47  77 NW6       30.04R
ORLANDO        CLEAR     45  39  79 NW5       30.05S
NEW YORK       PTCLDY    34  25  69 W17       29.62R WCI  23
NEWARK         PTCLDY    33  25  72 W12       29.61R WCI  24
CHICAGO        CLOUDY    33  30  88 NE9       29.67S FOG     WCI  25
HARTFORD       CLOUDY    33  28  81 W12G24    29.46R WCI  24
BOSTON         MOCLDY    32  26  78 W13G23    29.44R WCI  22
DALLAS         FAIR      44  35  70 SW3       29.95S
PHILADELPHIA   PTCLDY    34  27  75 SW10      29.70R WCI  26


USA.gov is the U.S. government's official web portal to all federal, state and local government web resources and services.